Voltar ao catálogo

FENGYUN 1C DEB

AtivoSSO
NORAD 35139·DEBRIS·🇨🇳 China

Lançado May 10, 1999 de Taiyuan Satellite Launch Center

Loading…

Próximas Passagens (próximas 24 horas)

TLE

EnvelhecendoSource: Space-Track

Época: Sep 7, 2026, 05:23 UTC

1 35139U 99025DLT 26250.22456185  .00000376  00000-0  18735-3 0  9997
2 35139  98.5874 253.0522 0067396 238.5198 120.9382 14.21487796679679

Acompanhe FENGYUN 1C DEB em tempo real com AllMySat

Download on the App Store